www.pogodaiklimat.ru

Погода и климат >> Архив погоды >> Малайзия >> Kota Kinabalu


ПОГОДА в Kota Kinabalu

  • Прогноз погоды в Kota Kinabalu
  • Монитор погоды в Kota Kinabalu
  • Климат города

АРХИВ ПОГОДЫ в Kota Kinabalu

Время (UTC), дата Ветер
(напр.,м/с)
 
Видим.   Явления Облачность Т
(С)
Тd
(С)
f
(%)
Тe
(С)
Тes
(С)
Комфортность P
(гПа)
Po
(гПа)
Тmin
(С)
Tmax
(С)
R
(мм)
R24
(мм)
S
(см)
06 17.06 СЗ 2 25 км 9/3 420 м
[Cu Sc Ac lent Ci sp]
+33.8 +26.8 67 +51 +59 опасность
перегрева
1006.4 1006.1
09 17.06 СЗ 1 25 км 9/3 420 м
[Cu Sc Ac lent Ci sp]
+31.6 +26.3 74 +48 +49 опасность
перегрева
1005.8 1005.5
12 17.06 С 1 18 км 9/4 420 м
[Cu Sc Ac lent Cs]
+29.5 +25.3 78 +43 +43 опасность
перегрева
1007.6 1007.3 +34.0
15 17.06 ЮВ 2 15 км гроза, ливневой дождь 9/6 420 м
[Cb cap Ac lent Cs]
+27.6 +25.8 90 +41 +41 опасность
перегрева
1009.2 1008.9
18 17.06 ЮВ 2 18 км гроза без осадков {дождь} 9/4 420 м
[Cb cap Ac lent Cs]
+25.9 +23.4 86 +35 +35 очень
душно
1007.9 1007.6
21 17.06 Ю 6 4000 м дождь {гроза} 9/5 400 м
[Cb cap Ac lent Cs]
+24.0 +24.0 100 +33 +33 очень
душно
1009.0 1008.7
00 18.06 В 2 25 км {дождь} 9/3 420 м
[Cb cap Ac lent Cs]
+26.2 +24.2 89 +36 +38 очень
душно
1009.5 1009.2 +23.6 6
03 18.06 З 2 25 км 9/3 450 м
[Cb cap Ac trans Ci sp]
+31.3 +26.1 74 +47 +55 опасность
перегрева
1009.1 1008.8
06 18.06 ЮВ 2 22 км осадки на расстоянии 9/3 420 м
[Cb cap Ac lent Cs]
+29.5 +25.4 79 +43 +50 опасность
перегрева
1007.2 1006.9
09 18.06 ЮЗ 1 25 км 9/3 420 м
[Cb cap Ac lent Ci sp]
+29.4 +25.3 79 +43 +44 опасность
перегрева
1007.1 1006.8
12 18.06 ЮВ 3 18 км гроза без осадков 9/5 420 м
[Cb cap Ac lent Cs]
+27.5 +24.5 84 +39 +39 очень
душно
1008.8 1008.5 +32.0
15 18.06 Ю 5 18 км зарница {гроза} 9/5 420 м
[Cb cap Ac lent Cs]
+25.8 +24.6 93 +36 +36 очень
душно
1010.9 1010.6
18 18.06 В 3 12 км слабый дождь {гроза} 10/8 420 м
[Cb cap Ac lent Cs]
+25.2 +24.7 97 +35 +35 очень
душно
1009.7 1009.4 0.8
21 18.06 В 3 18 км 9/4 450 м
[Cu Sc Ac lent Cs]
+24.5 +23.2 92 +33 +33 очень
душно
1009.0 1008.7
00 19.06 СВ 1 24 км в посл. час дождь 10/4 420 м
[Cb cap Ac lent Cs]
+26.4 +23.9 86 +36 +38 очень
душно
1010.8 1010.5 +24.2 1
03 19.06 СЗ 1 26 км 10/4 420 м
[Cb cap Ac lent Cs]
+29.4 +25.2 78 +43 +49 опасность
перегрева
1010.9 1010.6
06 19.06 ЮЗ 7 22 км осадки на расстоянии 9/5 420 м
[Cb cap Ac lent Cs]
+27.9 +24.8 83 +40 +41 очень
душно
1009.0 1008.7
09 19.06 З 1 25 км 9/3 420 м
[Cu Sc Ac lent Ci sp]
+27.3 +23.5 80 +37 +38 очень
душно
1008.1 1007.8
12 19.06 ЮВ 2 18 км {дождь} 9/3 420 м
[Cu Sc Ac lent Ci sp]
+26.5 +23.3 83 +36 +36 очень
душно
1010.4 1010.1 +31.9 1
15 19.06 Ю 3 18 км зарница 9/3 420 м
[Cb cap Ac lent Cs]
+25.9 +23.4 86 +35 +35 очень
душно
1011.4 1011.1
18 19.06 Ю 6 10 км слабый дождь 9/5 420 м
[Cb cap Ac lent Cs]
+25.8 +23.0 85 +34 +34 очень
душно
1009.3 1009.0 0.2
21 19.06 ЮВ 2 18 км {дождь} 9/4 400 м
[Cu Sc Ac lent Cs]
+25.2 +23.2 89 +34 +34 очень
душно
1009.8 1009.5
00 20.06 ЮВ 6 1500 м дождь 10/8 240 м
[Cu Sc Ac und Cs]
+23.2 +23.1 99 +32 +33 очень
душно
1011.7 1011.4 +23.3 10
03 20.06 Ю 5 4000 м слабый дождь 10/5 400 м
[Cu Sc Ac lent Cs]
+24.9 +24.2 96 +34 +37 очень
душно
1012.2 1011.9
06 20.06 Ю 5 8000 м слабый дождь 10/5 400 м
[Cu Sc Ac lent Cs]
+25.7 +24.0 90 +35 +37 очень
душно
1010.4 1010.1 19
09 20.06 Ю 4 25 км {дождь} 9/4 400 м
[Cu Sc Ac lent Cs]
+26.8 +23.1 80 +36 +37 очень
душно
1008.9 1008.6
12 20.06 ЮВ 2 18 км 9/3 420 м
[Cu Sc Ac lent Cs]
+25.5 +22.5 83 +33 +33 очень
душно
1008.9 1008.6 +27.3 0.0
15 20.06 В 2 18 км 9/3 420 м
[Cu Sc Ac lent Cs]
+24.5 +22.3 88 +32 +32 очень
душно
1010.7 1010.4
18 20.06 В 2 18 км 9/3 420 м
[Cu Sc Ac lent Cs]
+23.9 +21.7 88 +31 +31 очень
душно
1009.5 1009.2
21 20.06 В 3 18 км 9/1 420 м
[Cu Sc Ac lent Cs]
+23.5 +20.8 85 +29 +29 душно 1009.0 1008.7
00 21.06 В 3 28 км 9/3 420 м
[Cu Sc Ac lent Ci sp]
+27.2 +21.6 71 +35 +36 очень
душно
1010.8 1010.5 +23.1 19
03 21.06 З 1 28 км 9/3 420 м
[Cu Sc Ac lent Ci sp]
+31.7 +25.6 70 +46 +55 опасность
перегрева
1011.1 1010.8
06 21.06 З 2 25 км 9/3 420 м
[Cu Sc Ac lent Ci sp]
+31.3 +26.4 75 +47 +54 опасность
перегрева
1009.5 1009.2
09 21.06 ЮЗ 3 25 км 9/3 420 м
[Cu Sc Ac lent Cs]
+29.7 +24.8 75 +42 +43 опасность
перегрева
1008.2 1007.9
12 21.06 ЮВ 2 18 км 9/3 420 м
[Cu Sc Ac lent Cs]
+27.7 +23.5 78 +38 +38 очень
душно
1009.4 1009.1 +32.3
15 21.06 ЮВ 2 18 км {дождь} 9/3 420 м
[Cu Sc Ac lent Cs]
+25.6 +23.6 89 +35 +35 очень
душно
1010.5 1010.2
18 21.06 ЮВ 2 18 км {дождь} 9/3 420 м
[Cu Sc Ac lent Cs]
+25.0 +22.7 87 +33 +33 очень
душно
1009.9 1009.6 0.0
21 21.06 В 3 18 км 9/3 420 м
[Cu Sc Ac lent Cs]
+24.3 +22.0 87 +31 +31 очень
душно
1009.5 1009.2
00 22.06 ЮВ 3 28 км 9/3 420 м
[Cu Sc Ac lent Ci sp]
+27.1 +21.5 71 +34 +36 очень
душно
1011.0 1010.7 +23.9 0.0
03 22.06 Ю 2 28 км 9/3 420 м
[Cu Sc Ac lent Cs]
+31.7 +22.4 58 +41 +49 опасность
перегрева
1011.2 1010.9
06 22.06 З 1 25 км 9/1 420 м
[Cu Sc Ac lent Ci sp]
+33.8 +25.1 61 +48 +58 опасность
перегрева
1009.1 1008.8
09 22.06 З 1 25 км 9/1 420 м
[Cu Sc Ac lent Ci sp]
+31.2 +25.3 71 +45 +47 опасность
перегрева
1008.3 1008.0
12 22.06 ЮВ 2 18 км 9/1 420 м
[Cu Sc Ac lent Cs]
+28.0 +24.8 83 +40 +40 очень
душно
1010.5 1010.2 +34.0
15 22.06 В 3 18 км 9/1 420 м
[Cu Sc Ac lent Cs]
+26.6 +23.7 84 +36 +36 очень
душно
1011.1 1010.8
18 22.06 В 3 18 км 10/1 420 м
[Cu Sc Ac lent Cs]
+26.0 +23.5 86 +35 +35 очень
душно
1009.6 1009.3
21 22.06 В 2 18 км 9/1 420 м
[Cu Sc Ac lent Cs]
+25.6 +23.5 88 +35 +35 очень
душно
1009.5 1009.2
00 23.06 ЮВ 2 28 км 9/3 420 м
[Cu Sc Ac lent Cs]
+27.6 +24.1 81 +38 +40 очень
душно
1010.5 1010.2 +25.5
03 23.06 З 1 28 км 9/1 420 м
[Cu Sc Ac lent Cs]
+32.5 +27.0 73 +51 +61 опасность
перегрева
1010.2 1009.9
06 23.06 СЗ 2 28 км 9/5 420 м
[Cb cap Ac lent Cs]
+33.4 +27.5 71 +53 +58 опасность
перегрева
1007.5 1007.2
09 23.06 СВ 3 12 км слабый дождь 10/6 400 м
[Cb cap Ac lent Cs]
+28.2 +26.1 88 +42 +43 опасность
перегрева
1007.8 1007.5
12 23.06 В 3 10 км слабый дождь 10/5 400 м
[Cu Sc Ac lent Cs]
+26.0 +24.0 89 +36 +36 очень
душно
1008.5 1008.2 +33.6 0.6
15 23.06 В 3 15 км 9/3 420 м
[Cu Sc Ac lent Cs]
+24.9 +22.7 88 +33 +33 очень
душно
1010.5 1010.2
18 23.06 В 3 18 км {дождь} 9/3 420 м
[Cu Sc Ac lent Cs]
+24.2 +22.4 90 +32 +32 очень
душно
1008.8 1008.5 0.0
21 23.06 В 3 18 км 9/3 420 м
[Cu Sc Ac lent Cs]
+24.2 +22.4 90 +32 +32 очень
душно
1008.1 1007.8
00 24.06 ЮВ 2 25 км 9/1 420 м
[Cu Sc Ac lent Ci sp]
+28.1 +23.9 78 +39 +41 очень
душно
1008.8 1008.5 +24.2 0.6
03 24.06 З 2 25 км 9/1 420 м
[Cu Sc Ac trans Ci sp]
+32.6 +27.4 74 +51 +61 опасность
перегрева
1009.4 1009.1

 

Местоположение метеостанции Kota Kinabalu (Малайзия): широта 5.93 долгота 116.05 высота над уровнем моря 3 м.

В архиве по умолчанию представлена погода в Kota Kinabalu за последнюю неделю. Архивные данные за месяц целиком и за предыдущие месяцы, начиная с января 2011 года, Вы можете получить, выбрав интересующий диапазон дат из раскрывающегося списка и нажав кнопку "Ввод!".

Внимание! Время в таблицах - всемирное. Для получения местного времени необходимо прибавить поправку, которая в Kota Kinabalu равна 8 ч.

Смотрите также архив погоды в соседних городах и на ближайших метеорологических станциях:

Погода в Labuan (Малайзия) (113 км)
Погода в Brunei Airport (Бруней) (167 км)
Погода в Sandakan (Малайзия) (222 км)
Погода в Longbawan (Индонезия) (248 км)
Погода в Tawau (Малайзия) (274 км)
Погода в Miri (Малайзия) (290 км)
Погода в Tarakan (Индонезия) (334 км)
Погода в Tanjung Selor (Индонезия) (371 км)
Погода в Tanjung Redep (Индонезия) (451 км)
Погода в Bintulu (Малайзия) (452 км)

Пояснения к столбцам:

Ветер - указаны скорость ветра в м/с - средняя за 10 мин, порывы в срок и между сроками (в фигурных скобках) и направление, откуда дует ветер: С - северный, СВ - северо-восточный, В - восточный, ЮВ - юго-восточный, Ю - южный, ЮЗ - юго-западный, З - западный, СЗ - северо-западный.
Видимость - горизонтальная дальность видимости в метрах или километрах. При видимости от 1 до 10 км при отсутствии осадков обычно наблюдается дымка, при ухудшении видимости до 1 км и менее - туман. В сухую погоду видимость может ухудшаться дымом, пылью или мглою.
Явления - указаны атмосферные явления, наблюдавшиеся в срок или в последний час перед сроком; фигурными скобками обозначены явления, наблюдавшиеся между сроками (за 1-3 часа до срока); квадратными скобками обозначены град или гололедные отложения с указанием их диаметра в мм.
Облачность - указаны через наклонную черту общая и нижняя облачность в баллах и высота нижней границы облаков в метрах; квадратными скобками обозначены формы облаков: Ci - перистые, Cs - перисто-слоистые, Cc - перисто-кучевые, Ac - высококучевые, As - высокослоистые, Sc - слоисто-кучевые, Ns - слоисто-дождевые, Cu - кучевые, Cb - кучево-дождевые. Подробнее классификацию облаков см. в Атласе облаков (PDF).
T - Температура воздуха - температура, измеренная на высоте 2 м над землей.
Td - Температура точки росы - температура, при понижении до которой содержащийся в воздухе водяной пар достигнет насыщения.
f - Относительная влажность воздуха - влажноcть воздуха, измеренная на высоте 2 м над землей.
Te - Эффективная температура - температура, которую ощущает одетый по сезону человек в тени. Характеристика душности погоды. При расчете учитывается влияние влажности воздуха и скорости ветра на теплоощущения человека.
Tes - Эффективная температура на солнце - температура, которую ощущает человек, с поправкой на солнечный нагрев. Характеристика знойности погоды. Зависит от высоты солнца над горизонтом, облачности и скорости ветра. Ночью, в пасмурную погоду, а также при ветре 12 м/с и более поправка равна нулю.
P - Атмосферное давление - приведенное к уровню моря атмосферное давление.
Po - Атмосферное давление - измеренное на уровне метеостанции атмосферное давление.
Tmin - Минимальная температура - минимум температуры воздуха на высоте 2 м над землей.
Tmax - Максимальная температура - максимум температуры воздуха на высоте 2 м над землей.
R - Количество осадков - Количество выпавших осадков за период времени, мм. При наведении курсора мыши на число - период времени, за который выпало указанное количество осадков.
R24 - Количество осадков - Количество выпавших осадков за 24 часа, мм.
S - Снежный покров - Высота снежного покрова, см. При наведении курсора мыши на число - состояние снежного покрова и степень покрытия местности в баллах.